COSMOS 252 DEB, 3549

Orbit data source: Space-Track

COSMOS 252 DEB, 3549 is space debris in LEO originally from a launch on Fri, 01 Nov 1968 UTC launched from the Tyuratam Missile And Space Complex (TTMTR). Debris objects in space refer to the collection of defunct objects orbiting the Earth. Examples of debris include non-operational satellites, rocket bodies, and fragments generated from explosions, collisions, or faulty payload assembly.

Loading next visibility...
Identifier
3549, 1968-097B
Orbit
LEO
Country
Flag of CISCIS
Related business
Manufacturer
Unknown
Mission
Spacecraft
Bus & Motor
Unknown
Mass
Unknown
Launch date (UTC)
1968-11-01 (57 years ago)
Launch vehicle
Unknown
Launch site
Tyuratam Missile And Space Complex (TTMTR)
Object type
Payload
Rocket body
Debris
Shape & HBR
Unknown shape, 0.1 m
Radar Cross Section
Small (<0.1 m²)

Expand to show TLE details & history
Last TLE update: 1 day ago

TLE from 1 day ago
0 COSMOS 252 DEB
1 03549U 68097B   25346.68799807  .00014266  00000-0  16995-2 0  9996
2 03549  62.3010  94.6945 0264015 291.2011  66.1045 14.62728671842714
Epoch: 2025-12-12T16:30Z
TLE epoch observation values (Epoch: 2025-12-12T16:30:43.033Z)
Latitude
0.00005°
Longitude
125.38919°
Altitude
614.792 km
Speed
7.59 km/s
True Right ascension
06h 18m 46s
True Declination
0° 00' 00"
Sunlit
Object was in full shadow at epoch
Visualization orbit readout
Latitude
Unknown
Longitude
Unknown
Altitude
Unknown
Speed
Unknown
Apparent Right ascension
Unknown
Apparent Declination
Unknown
Sunlit
N/A
Visualization observer readout
Local Sidereal Time
18:30:36
Azimuth
Unknown
Elevation
Unknown
Doppler factor
Unknown
Orbital elements
Apogee altitude
869.716 km
Perigee altitude
496.851 km
Semi-major axis
7,061.42 km
Eccentricity
0.0264
Inclination
62.301°
RAAN
94.6945°
Arg. of periapsis
291.2011°
True anomaly
68.90691°
Mean anomaly
66.1045°
Eccentric anomaly
67.50207°
Mean motion
3.65767 °/min
Orbital period
98.42 mins
BSTAR
0.0016995
Loading maneuver chart data...
Computing Atmospheric mass density...

Documentation

Showing up to 5 results
|